[TLELIST] Archives

 

[TLELIST] Current TLEs

July 11th 2023 PDT

HST 1 20580U 90037B 23191.86916583 .00003317 00000-0 17058-3 0 9994 2 20580 28.4693 110.4047 0002364 276.0420 142.0193 15.13436422625310 ISS (ZARYA) 1 25544U 98067A 23192.44888453 .00009587 00000-0 17775-3 0 9990 2 25544 51.6413 208.2874 0000213 101.0412 51.1708 15.49669613405559 CXO 1 25867U 99040B 23194.39946457 .00000241 00000-0 00000+0 0 9992 2 25867 37.4430 193.4418 9057506 265.1834 0.1155 0.37811746 24434 ...Continue Reading

[TLELIST] Current TLEs

July 10th 2023 PDT

HST 1 20580U 90037B 23190.50393878 .00003328 00000-0 17125-3 0 9997 2 20580 28.4691 119.4914 0002363 259.7240 265.2977 15.13427511625112 ISS (ZARYA) 1 25544U 98067A 23191.40640406 .00008879 00000-0 16536-3 0 9996 2 25544 51.6410 213.4505 0000239 113.2858 339.3258 15.49647752405395 CXO 1 25867U 99040B 23191.75656981 .00000250 00000-0 00000+0 0 9999 2 25867 37.4567 193.8380 9055716 264.8468 0.3440 0.37811306 24427 ...Continue Reading

[TLELIST] Current TLEs

July 10th 2023 PDT

HST 1 20580U 90037B 23190.50393878 .00003328 00000-0 17125-3 0 9997 2 20580 28.4691 119.4914 0002363 259.7240 265.2977 15.13427511625112 ISS (ZARYA) 1 25544U 98067A 23191.40640406 .00008879 00000-0 16536-3 0 9996 2 25544 51.6410 213.4505 0000239 113.2858 339.3258 15.49647752405395 CXO 1 25867U 99040B 23191.75656981 .00000250 00000-0 00000+0 0 9999 2 25867 37.4567 193.8380 9055716 264.8468 0.3440 0.37811306 24427 ...Continue Reading

[TLELIST] Current TLEs

July 9th 2023 PDT

HST 1 20580U 90037B 23189.18124677 .00003939 00000-0 20457-3 0 9998 2 20580 28.4689 128.2945 0002383 243.6949 260.5368 15.13420247624919 ISS (ZARYA) 1 25544U 98067A 23190.39584491 .00010445 00000-0 19319-3 0 9998 2 25544 51.6406 218.4550 0000228 95.6224 115.6612 15.49631003405237 CXO 1 25867U 99040B 23191.75656981 .00000250 00000-0 00000+0 0 9999 2 25867 37.4567 193.8380 9055716 264.8468 0.3440 0.37811306 24427 ...Continue Reading

[TLELIST] Current TLEs

July 9th 2023 PDT

HST 1 20580U 90037B 23189.18124677 .00003939 00000-0 20457-3 0 9998 2 20580 28.4689 128.2945 0002383 243.6949 260.5368 15.13420247624919 ISS (ZARYA) 1 25544U 98067A 23190.39584491 .00010445 00000-0 19319-3 0 9998 2 25544 51.6406 218.4550 0000228 95.6224 115.6612 15.49631003405237 CXO 1 25867U 99040B 23191.75656981 .00000250 00000-0 00000+0 0 9999 2 25867 37.4567 193.8380 9055716 264.8468 0.3440 0.37811306 24427 ...Continue Reading

[TLELIST] Current TLEs

July 9th 2023 PDT

HST 1 20580U 90037B 23189.18124677 .00003939 00000-0 20457-3 0 9998 2 20580 28.4689 128.2945 0002383 243.6949 260.5368 15.13420247624919 ISS (ZARYA) 1 25544U 98067A 23190.39584491 .00010445 00000-0 19319-3 0 9998 2 25544 51.6406 218.4550 0000228 95.6224 115.6612 15.49631003405237 CXO 1 25867U 99040B 23191.75656981 .00000250 00000-0 00000+0 0 9999 2 25867 37.4567 193.8380 9055716 264.8468 0.3440 0.37811306 24427 ...Continue Reading

[TLELIST] Current TLEs

July 8th 2023 PDT

HST 1 20580U 90037B 23189.18124677 .00003939 00000-0 20457-3 0 9998 2 20580 28.4689 128.2945 0002383 243.6949 260.5368 15.13420247624919 ISS (ZARYA) 1 25544U 98067A 23189.39344297 .00010501 00000-0 19433-3 0 9994 2 25544 51.6405 223.4203 0000210 104.9707 270.5867 15.49609349405082 CXO 1 25867U 99040B 23189.11203580 .00000394 00000-0 00000+0 0 9998 2 25867 37.4736 194.2057 9051980 264.5386 0.3029 0.37811182 24410 ...Continue Reading

[TLELIST] Current TLEs

July 8th 2023 PDT

HST 1 20580U 90037B 23189.18124677 .00003939 00000-0 20457-3 0 9998 2 20580 28.4689 128.2945 0002383 243.6949 260.5368 15.13420247624919 ISS (ZARYA) 1 25544U 98067A 23189.39344297 .00010501 00000-0 19433-3 0 9994 2 25544 51.6405 223.4203 0000210 104.9707 270.5867 15.49609349405082 CXO 1 25867U 99040B 23189.11203580 .00000394 00000-0 00000+0 0 9998 2 25867 37.4736 194.2057 9051980 264.5386 0.3029 0.37811182 24410 ...Continue Reading

[TLELIST] Current TLEs

July 7th 2023 PDT

HST 1 20580U 90037B 23187.60293274 .00003465 00000-0 17878-3 0 9990 2 20580 28.4687 138.7985 0002431 225.5298 302.4854 15.13408807624674 ISS (ZARYA) 1 25544U 98067A 23188.39074074 .00009778 00000-0 18167-3 0 9993 2 25544 51.6404 228.3856 0000184 50.0856 128.1436 15.49585600404920 CXO 1 25867U 99040B 23189.11203580 .00000394 00000-0 00000+0 0 9998 2 25867 37.4736 194.2057 9051980 264.5386 0.3029 0.37811182 24410 ...Continue Reading

[TLELIST] Current TLEs

July 6th 2023 PDT

HST 1 20580U 90037B 23186.34286705 .00003199 00000-0 16433-3 0 9991 2 20580 28.4684 147.1849 0002439 211.5393 277.6622 15.13400961624470 ISS (ZARYA) 1 25544U 98067A 23187.34555919 .00007611 00000-0 14335-3 0 9996 2 25544 51.6398 233.5611 0000373 12.3897 91.4664 15.49560249404764 CXO 1 25867U 99040B 23189.11203580 .00000394 00000-0 00000+0 0 9998 2 25867 37.4736 194.2057 9051980 264.5386 0.3029 0.37811182 24410 ...Continue Reading
  • This mailing list is a public mailing list - anyone may join or leave, at any time.
  • This mailing list is announce-only.

International Space Station (ISS) / Hubble Space Telescope (HST) / Chandra X-Ray Observatory Orbital Data via EMAIL

Privacy Policy:

Private list